TimeCDT,TemperatureF,Dew PointF,Humidity,Sea Level PressureIn,VisibilityMPH,Wind Direction,Wind SpeedMPH,Gust SpeedMPH,PrecipitationIn,Events,Conditions,WindDirDegrees,DateUTC
12:53 AM,48.0,42.1,80,29.94,10.0,WNW,6.9,-,N/A,,Clear,300,2013-05-06 05:53:00
1:53 AM,48.0,43.0,83,29.91,10.0,WNW,6.9,-,N/A,,Clear,300,2013-05-06 06:53:00
2:53 AM,46.9,43.0,86,29.91,10.0,WNW,3.5,-,N/A,,Clear,290,2013-05-06 07:53:00
3:53 AM,44.1,42.1,93,29.93,10.0,Calm,Calm,-,N/A,,Clear,0,2013-05-06 08:53:00
4:53 AM,43.0,41.0,93,29.94,10.0,Calm,Calm,-,N/A,,Clear,0,2013-05-06 09:53:00
5:53 AM,42.1,39.9,92,29.95,8.0,Calm,Calm,-,N/A,,Clear,0,2013-05-06 10:53:00
6:53 AM,45.0,43.0,93,29.97,10.0,Calm,Calm,-,N/A,,Clear,0,2013-05-06 11:53:00
7:53 AM,52.0,45.0,77,29.97,10.0,WSW,3.5,-,N/A,,Clear,250,2013-05-06 12:53:00
8:53 AM,57.9,45.0,62,29.98,10.0,West,6.9,-,N/A,,Clear,270,2013-05-06 13:53:00
9:53 AM,62.1,44.1,52,29.98,10.0,West,11.5,-,N/A,,Partly Cloudy,280,2013-05-06 14:53:00
10:53 AM,62.1,45.0,53,29.98,10.0,WSW,10.4,18.4,N/A,,Overcast,250,2013-05-06 15:53:00
11:53 AM,66.9,45.0,45,29.96,10.0,WSW,11.5,20.7,N/A,,Mostly Cloudy,240,2013-05-06 16:53:00
12:53 PM,66.0,44.1,45,29.95,10.0,WSW,11.5,19.6,N/A,,Overcast,250,2013-05-06 17:53:00
1:53 PM,66.0,46.0,48,29.94,10.0,West,12.7,-,N/A,,Overcast,260,2013-05-06 18:53:00
2:53 PM,64.9,46.9,52,29.92,10.0,West,10.4,-,N/A,,Overcast,260,2013-05-06 19:53:00
3:53 PM,64.9,46.9,52,29.91,10.0,WNW,11.5,-,N/A,,Overcast,290,2013-05-06 20:53:00
4:53 PM,64.0,48.9,58,29.90,10.0,West,6.9,-,0.00,,Overcast,270,2013-05-06 21:53:00
5:53 PM,62.1,48.0,60,29.91,10.0,West,11.5,18.4,N/A,,Overcast,260,2013-05-06 22:53:00
6:53 PM,59.0,52.0,78,29.93,10.0,West,4.6,-,0.00,,Overcast,280,2013-05-06 23:53:00
7:53 PM,57.9,52.0,81,29.94,10.0,West,5.8,-,0.00,,Overcast,270,2013-05-07 00:53:00
8:53 PM,57.9,52.0,81,29.94,10.0,West,4.6,-,0.00,,Overcast,270,2013-05-07 01:53:00
9:53 PM,57.0,53.1,87,29.95,10.0,SW,4.6,-,N/A,,Overcast,220,2013-05-07 02:53:00
10:53 PM,57.9,53.1,84,29.94,10.0,WSW,3.5,-,N/A,,Overcast,240,2013-05-07 03:53:00
11:53 PM,55.9,52.0,87,29.94,10.0,WSW,4.6,-,N/A,,Clear,250,2013-05-07 04:53:00